This demonstration page uses our WeatherBlox Daily Observations layout. Learn more.

Hourly Observations for October 27, 2018

Temp ( °F °C ) Dew Point ( °F °C ) Humidity (%) Winds ( mph kmh ) Pressure ( in mb ) Visibility ( mi km ) Precip ( " mm )
12:15 am 00:15 Clear 49 9.2 37 2.7 64 64 W 6 9 29.94 1014 10 16.0934 0 0
12:35 am 00:35 Clear 46 7.9 37 2.5 69 69 WNW 5 7 29.97 1015 10 16.0934 0 0
12:55 am 00:55 Clear 47 8.2 37 2.5 68 68 W 7 11 29.97 1015 10 16.0934 0 0
1:15 am 01:15 Clear 46 8 36 2.4 68 68 W 7 11 29.97 1015 10 16.0934 0 0
1:35 am 01:35 Clear 47 8.6 37 2.5 66 66 W 9 15 29.94 1014 10 16.0934 0 0
1:55 am 01:55 Clear 47 8.1 37 2.5 68 68 WNW 7 11 29.97 1015 10 16.0934 0 0
2:15 am 02:15 Clear 44 6.8 36 2.3 73 73 WNW 7 11 29.97 1015 10 16.0934 0 0
2:35 am 02:35 Clear 45 7 36 2.3 72 72 WNW 6 9 29.97 1015 10 16.0934 0 0
2:55 am 02:55 Clear 44 6.5 36 2.4 75 75 WNW 6 9 29.97 1015 10 16.0934 0 0
3:15 am 03:15 Clear 43 6.3 36 2.3 76 76 WNW 5 7 29.97 1015 10 16.0934 0 0
3:35 am 03:35 Clear 46 7.7 37 2.5 70 70 W 7 11 29.97 1015 10 16.0934 0 0
3:55 am 03:55 Clear 46 7.5 36 2.3 70 70 WNW 8 13 29.97 1015 10 16.0934 0 0
4:15 am 04:15 Clear 43 6 36 2 76 76 W 7 11 29.97 1015 10 16.0934 0 0
4:35 am 04:35 Clear 44 6.6 36 2.3 74 74 W 5 7 29.97 1015 10 16.0934 0 0
4:55 am 04:55 Clear 43 6.1 36 2.1 76 76 WNW 6 9 29.97 1015 10 16.0934 0 0
5:15 am 05:15 Clear 43 6 36 2 76 76 WNW 5 7 29.97 1015 10 16.0934 0 0
5:35 am 05:35 Clear 41 5.2 36 2 80 80 W 5 7 30 1016 10 16.0934 0 0
5:55 am 05:55 Clear 43 6 36 2 76 76 W 5 7 29.97 1015 10 16.0934 0 0
6:15 am 06:15 Clear 43 6.3 36 2 74 74 W 5 7 29.97 1015 10 16.0934 0 0
6:35 am 06:35 Clear 44 6.5 35 1.9 73 73 W 6 9 29.97 1015 10 16.0934 0 0
6:55 am 06:55 Clear 43 6.2 35 1.7 73 73 W 5 7 29.97 1015 10 16.0934 0 0
7:15 am 07:15 Clear 44 6.6 35 1.6 71 71 W 6 9 29.97 1015 10 16.0934 0 0
7:35 am 07:35 Clear 44 6.5 35 1.5 71 71 W 6 9 29.97 1015 10 16.0934 0 0
7:55 am 07:55 Clear 44 6.4 35 1.8 73 73 W 7 11 29.97 1015 10 16.0934 0 0
8:15 am 08:15 Sunny 44 6.5 36 2 73 73 W 6 9 29.97 1015 10 16.0934 0 0
8:35 am 08:35 Sunny 44 6.7 36 2.1 73 73 WSW 6 9 29.97 1015 10 16.0934 0 0
8:55 am 08:55 Sunny 47 8.5 37 2.8 68 68 W 5 7 29.97 1015 10 16.0934 0 0
9:15 am 09:15 Sunny 50 10 38 3.6 65 65 W 8 13 29.94 1014 10 16.0934 0 0
9:35 am 09:35 Sunny 53 11.5 39 3.9 60 60 W 6 9 29.94 1014 10 16.0934 0 0
9:55 am 09:55 Sunny 54 12.3 39 4.1 58 58 WSW 7 11 29.91 1013 10 16.0934 0 0
10:15 am 10:15 Sunny 55 12.7 40 4.2 57 57 WSW 5 7 29.91 1013 10 16.0934 0 0
10:35 am 10:35 Sunny 57 13.8 39 3.9 52 52 SW 5 7 29.91 1013 10 16.0934 0 0
10:55 am 10:55 Sunny 60 15.3 40 4.7 49 49 SW 7 11 29.91 1013 10 16.0934 0 0
11:15 am 11:15 Sunny 62 16.4 40 4.3 45 45 WSW 9 15 29.88 1012 10 16.0934 0 0
11:35 am 11:35 Sunny 63 17 38 3.1 40 40 SW 8 13 29.88 1012 10 16.0934 0 0
11:55 am 11:55 Sunny 64 17.7 39 3.8 40 40 WSW 8 13 29.88 1012 10 16.0934 0 0
12:15 pm 12:15 Sunny 64 18 40 4.3 40 40 SW 8 13 29.88 1012 10 16.0934 0 0
12:35 pm 12:35 Sunny 65 18.5 41 5.1 41 41 WSW 9 15 29.85 1011 10 16.0934 0 0
12:55 pm 12:55 Sunny 67 19.3 42 5.6 41 41 WSW 10 17 29.83 1010 10 16.0934 0 0
1:15 pm 13:15 Sunny 69 20.4 43 6 39 39 WSW 9 15 29.83 1010 10 16.0934 0 0
1:35 pm 13:35 Sunny 70 21.1 43 6 38 38 SW 12 19 29.8 1009 10 16.0934 0 0
1:55 pm 13:55 Sunny 71 21.8 43 6.1 36 36 SW 12 19 29.8 1009 10 16.0934 0 0
2:15 pm 14:15 Sunny 72 22.4 43 6.1 35 35 WSW 10 17 29.74 1007 10 16.0934 0 0
2:35 pm 14:35 Sunny 73 22.8 43 6 34 34 WSW 9 15 29.74 1007 10 16.0934 0 0
2:55 pm 14:55 Sunny 74 23.1 43 5.9 33 33 WSW 13 20 29.71 1006 10 16.0934 0 0
3:15 pm 15:15 Sunny 75 23.7 43 5.9 32 32 SW 14 22 29.71 1006 10 16.0934 0 0
3:35 pm 15:35 Sunny 75 23.7 42 5.7 31 31 WSW 15 24 29.71 1006 10 16.0934 0 0
3:55 pm 15:55 Sunny 75 23.7 42 5.7 31 31 WSW 14 22 29.71 1006 10 16.0934 0 0
4:15 pm 16:15 Sunny 76 24.2 42 5.5 30 30 W 13 20 29.71 1006 10 16.0934 0 0
4:35 pm 16:35 Sunny 75 24.1 42 5.7 31 31 WSW 9 15 29.71 1006 10 16.0934 0 0
4:55 pm 16:55 Sunny 75 24 42 5.8 31 31 SW 9 15 29.68 1005 10 16.0934 0 0
5:15 pm 17:15 Sunny 75 24 43 6 31 31 SW 8 13 29.68 1005 10 16.0934 0 0
5:35 pm 17:35 Sunny 75 23.7 44 6.4 33 33 SW 6 9 29.68 1005 10 16.0934 0 0
5:55 pm 17:55 Sunny 74 23.2 43 6.1 33 33 W 6 9 29.68 1005 10 16.0934 0 0
6:15 pm 18:15 Sunny 73 22.6 43 6.3 35 35 W 5 7 29.68 1005 10 16.0934 0 0
6:35 pm 18:35 Sunny 70 21.1 43 5.9 37 37 WSW 3 6 29.68 1005 10 16.0934 0 0
6:55 pm 18:55 Clear 70 21.1 42 5.4 36 36 Calm 29.74 1007 10 16.0934 0 0
7:15 pm 19:15 Partly Cloudy 68 20.1 43 6 40 40 Calm 29.74 1007 10 16.0934 0 0
7:35 pm 19:35 Cloudy 69 20.6 42 5.7 38 38 NW 5 7 29.74 1007 10 16.0934 0 0
7:55 pm 19:55 Mostly Cloudy 66 19 43 6.1 43 43 NW 7 11 29.77 1008 10 16.0934 0 0
8:15 pm 20:15 Partly Cloudy 63 17.3 45 7.3 52 52 N 36 57 29.85 1011 10 16.0934 0 0
8:35 pm 20:35 Partly Cloudy 61 16 45 7 55 55 N 28 44 29.88 1012 10 16.0934 0 0
8:55 pm 20:55 Partly Cloudy 60 15.4 45 7.1 58 58 N 21 33 29.88 1012 10 16.0934 0 0
9:15 pm 21:15 Mostly Cloudy 59 15 45 7.2 60 60 N 20 31 29.94 1014 10 16.0934 0 0
9:35 pm 21:35 Cloudy 59 15 45 7.3 60 60 N 14 22 29.94 1014 10 16.0934 0 0
9:55 pm 21:55 Mostly Cloudy 58 14.4 46 7.5 63 63 N 13 20 29.94 1014 10 16.0934 0 0
10:15 pm 22:15 Clear 57 13.7 46 7.6 67 67 N 10 17 29.94 1014 10 16.0934 0 0
10:35 pm 22:35 Clear 56 13.6 46 7.7 68 68 N 14 22 29.97 1015 10 16.0934 0 0
10:55 pm 22:55 Clear 56 13.6 43 6 60 60 N 21 33 29.97 1015 10 16.0934 0 0
11:15 pm 23:15 Clear 55 12.8 43 6.2 64 64 N 13 20 29.97 1015 10 16.0934 0 0
11:35 pm 23:35 Clear 54 12.1 43 6.3 68 68 N 10 17 30.03 1017 10 16.0934 0 0
11:55 pm 23:55 Clear 53 11.5 43 6.3 71 71 N 12 19 30.03 1017 10 16.0934 0 0

Powered by AerisWeather